Хат-Крик

США     40°50′31″N   121°25′37″W
темп.,
°C
ветер,
м/с
пор.,
м/с
влажн.,
%
обл.,
%
осадки,
мм/ч
давл.,
гПа
погр.,
м
19 апреля, пн
пн1923:00+9ю223516 0.0 102120
02:00+9ю2237100 0.0 102118
05:00+7ююв2242100 0.0 102115
08:00+12в11406 0.0 1020122
11:00+18с33285 0.0 10181604
14:00+20с342050 0.0 10162652
17:00+20зсз23205 0.0 10132959
20:00+11сз245080 0.0 1016154
20 апреля, вт
вт2023:00+6юв22831 0.4 101828
02:00+5юв22869 0.3 101719
05:00+3юв119344 0.6 101715
08:00+6св228922 0.6 1015233
11:00+9ссв347093 1.0 10131065
14:00+7ссз3773100 1.3 1013800
17:00+10в3961100 3.8 10111256
20:00+5юв22845 0.1 101227
21 апреля, ср
ср2123:00+4юв11634 0.1 101421
02:00+2вюв11610 0.0 101519
05:00+1юв22610 0.0 101731
08:00+5всв25470 0.0 1015331
11:00+11ссв45300 0.0 10131225
14:00+16ссв55210 0.0 10112293
17:00+16ссв56224 0.0 10092552
20:00+8в22421 0.0 101112
22 апреля, чт
чт2223:00+5ю22480 0.0 101423
02:00+4ю22510 0.0 101418
05:00+4ююв2250100 0.0 101523
08:00+10ююв11348 0.0 1013118
11:00+16ссз342099 0.0 10101699
14:00+19сз45187 0.0 10092675
17:00+19зсз57198 0.0 10072734
20:00+10юз224811 0.0 101024
23 апреля, пт
пт2323:00+8ююз22549 0.0 101217
02:00+6ююз22603 0.0 101314
05:00+5ююз22705 0.0 101315
08:00+11з11542 0.0 1013222
11:00+17сз33319 0.0 10111614
14:00+19з452698 0.0 10092057
17:00+18зюз562873 0.0 10091629
20:00+10юз3356100 0.0 101057